This is the latest recevied weather packets stored in our database for station/object WZ8H. If no packets are shown the sender has not sent any weather packets the latest 10 day(s).
| Time | Temp. | Humidity | Pressure | Rain* | Wind** | Luminosity | Snow |
|---|---|---|---|---|---|---|---|
| 1777993357 | 17.78° C | 77% | 1005.6 hPa | 0 mm | - | 330 W/m² | - |
| 1777993033 | 17.78° C | 76% | 1005.4 hPa | 0 mm | - | 411 W/m² | - |
| 1777992736 | 17.78° C | 76% | 1005.2 hPa | 0 mm | - | 383 W/m² | - |
| 1777992411 | 17.78° C | 76% | 1005 hPa | 0 mm | - | 513 W/m² | - |
| 1777992087 | 17.78° C | 76% | 1004.7 hPa | 0 mm | - | 490 W/m² | - |
| 1777991767 | 17.78° C | 76% | 1004.3 hPa | 0 mm | - | 527 W/m² | - |
| 1777991471 | 17.78° C | 76% | 1004.3 hPa | 0 mm | - | 548 W/m² | - |
| 1777991140 | 17.78° C | 76% | 1004.3 hPa | 0 mm | - | 541 W/m² | - |
| 1777990843 | 17.78° C | 76% | 1004.6 hPa | 0 mm | - | 580 W/m² | - |
| 1777990515 | 17.78° C | 76% | 1004.5 hPa | 0 mm | - | 577 W/m² | - |
| 1777989908 | 17.78° C | 77% | 1004.5 hPa | 0 mm | - | 531 W/m² | - |
| 1777989589 | 17.22° C | 77% | 1004.6 hPa | 0 mm | - | 529 W/m² | - |
| 1777989257 | 17.22° C | 78% | 1004.6 hPa | 0 mm | - | 432 W/m² | - |
| 1777988930 | 17.22° C | 77% | 1004.6 hPa | 0 mm | - | 475 W/m² | - |
| 1777988604 | 17.22° C | 77% | 1004.6 hPa | 0 mm | - | 418 W/m² | - |
| 1777988301 | 17.22° C | 77% | 1004.6 hPa | 0 mm | - | 373 W/m² | - |
| 1777987996 | 17.22° C | 77% | 1004.4 hPa | 0 mm | - | 408 W/m² | - |
| 1777987670 | 17.22° C | 77% | 1004.3 hPa | 0 mm | - | 457 W/m² | - |
| 1777987367 | 17.22° C | 77% | 1004.4 hPa | 0 mm | - | 459 W/m² | - |
| 1777987042 | 17.22° C | 77% | 1004.4 hPa | 0 mm | - | 366 W/m² | - |
| 1777986740 | 16.67° C | 77% | 1004.4 hPa | 0 mm | - | 417 W/m² | - |
| 1777986433 | 16.67° C | 77% | 1004.3 hPa | 0 mm | - | 413 W/m² | - |
| 1777986135 | 16.67° C | 77% | 1004.3 hPa | 0 mm | - | 388 W/m² | - |
| 1777985802 | 16.67° C | 78% | 1004.3 hPa | 0 mm | - | 432 W/m² | - |
| 1777985498 | 16.67° C | 78% | 1004.4 hPa | 0 mm | - | 392 W/m² | - |
* Rain latest hour (hover to see other rain measurements)
** Current wind speed in m/s (hover to see current wind gust speed)